Preview of NWS' New Version of Forecast
This preview is not operational and should not be used for support decisions.

Regional Weather Roundup (RWR)

Issued by National Weather Service (NWS)

                            
000
ASUS43 KMKX 231800
RWRWI 

WISCONSIN REGIONAL WEATHER ROUNDUP
NATIONAL WEATHER SERVICE MILWAUKEE/SULLIVAN WI
1200 PM CST SAT FEB 23 2019

NOTE: "FAIR" INDICATES FEW OR NO CLOUDS BELOW 12,000 FEET WITH NO
SIGNIFICANT WEATHER AND/OR OBSTRUCTIONS TO VISIBILITY.

WIZ001-002-006>008-014>016-023>028-231900-
NORTHWEST WISCONSIN
  
CITY           SKY/WX    TMP DP  RH WIND       PRES   REMARKS
SUPERIOR ARPT  CLOUDY    30  28  94 NE7       29.96F WCI  23          
6HR MIN TEMP:  26; 6HR MAX TEMP:  29; 6HR PCP:  0.01;                

ASHLAND        CLOUDY    31  28  89 NE6       29.97F WCI  25          
6HR MIN TEMP:  26; 6HR MAX TEMP:  31; 6HR PCP:  0.08;                

HAYWARD        CLOUDY    31  26  82 VRB5      29.92F WCI  26          
6HR MIN TEMP:  28; 6HR MAX TEMP:  31; 6HR PCP:  0.04;                

SIREN          CLOUDY    31  25  77 SE6       29.93F WCI  26          
CUMBERLAND     CLOUDY    30  27  86 SE10      29.90F FOG     WCI  21  
RICE LAKE      CLOUDY    31  22  67 SE9       29.93F WCI  23          
6HR MIN TEMP:  27; 6HR MAX TEMP:  31; 6HR PCP:  0.01;                

CHETEK         CLOUDY    31  27  84 SE10      29.91F WCI  22          
6HR MIN TEMP:  26; 6HR MAX TEMP:  31; 6HR PCP:  0.02;                

LADYSMITH      CLOUDY    33  26  75 SE9       29.93F WCI  25          
6HR MIN TEMP:  27; 6HR MAX TEMP:  33; 6HR PCP:  0.01;                

EAU CLAIRE     NOT AVBL                                               
MENOMONIE      CLOUDY    28  25  89 E5        29.91F FOG     WCI  22  
6HR MIN TEMP:  23; 6HR MAX TEMP:  28; 6HR PCP:  0.01;                

NEW RICHMOND   CLOUDY    31  27  83 SE6       29.90F FOG     WCI  26  
6HR MIN TEMP:  27; 6HR MAX TEMP:  31;                                

OSCEOLA        CLOUDY    31  28  89 SE8       29.93F WCI  23          
6HR MIN TEMP:  27; 6HR MAX TEMP:  31;                                

$$
 
WIZ003>005-009-010-017-018-231900-
NORTH CENTRAL WISCONSIN
  
CITY           SKY/WX    TMP DP  RH WIND       PRES   REMARKS
MANITOWISH WTR NOT AVBL                                               
ARBOR VITAE    MIX PCPN  32  29  88 SE9G16    29.91F WCI  24          
6HR MIN TEMP:  26; 6HR MAX TEMP:  32; 6HR PCP:  0.02;                

WOODRUFF       MIX PCPN  32  29  88 SE9G16    29.91F WCI  24          
6HR MIN TEMP:  26; 6HR MAX TEMP:  32; 6HR PCP:  0.02;                

RHINELANDER    LGT SNOW  30  24  78 SE10      29.92F WCI  21          
6HR MIN TEMP:  26; 6HR MAX TEMP:  30; 6HR PCP:  0.08;                

EAGLE RIVER    LGT SNOW  28  24  85 SE10      29.93F WCI  19          
6HR MIN TEMP:  24; 6HR MAX TEMP:  28;                                

LAND O LAKES   LGT SNOW  29  26  86 SE12      29.95F WCI  20          
6HR MIN TEMP:  26; 6HR MAX TEMP:  29; 6HR PCP:  0.01;                

PHILLIPS       CLOUDY    29  26  86 SE9       29.92S WCI  21          
6HR MIN TEMP:  25; 6HR MAX TEMP:  29; 6HR PCP:  0.01;                

TOMAHAWK       MIX PCPN  29  26  89 CALM      29.92F                  
6HR MIN TEMP:  24; 6HR MAX TEMP:  29;                                

MEDFORD        CLOUDY    28  26  91 E3        29.90F FOG              
6HR MIN TEMP:  23; 6HR MAX TEMP:  28; 6HR PCP:  0.03;                

MERRILL        CLOUDY    31  27  84 SE7       29.93F WCI  24          
6HR MIN TEMP:  25; 6HR MAX TEMP:  31;                                

$$
 
WIZ029-030-035-036-043>047-231900-
CENTRAL WISCONSIN
  
CITY           SKY/WX    TMP DP  RH WIND       PRES   REMARKS
WAUSAU         CLOUDY    31  25  78 SE15      29.88F WCI  20          
6HR MIN TEMP:  24; 6HR MAX TEMP:  31; 6HR PCP:  0.03;                

MOSINEE        CLOUDY    32  27  80 E15G21    29.90F WCI  22          
MARSHFIELD     CLOUDY    31  28  89 SE12      29.88F WCI  22          
6HR MIN TEMP:  25; 6HR MAX TEMP:  31; 6HR PCP:  0.01;                

STEVENS POINT  CLOUDY    30  26  84 E15G23    29.92F WCI  19          
WAUPACA        CLOUDY    34  28  78 E13       29.93F WCI  25          
6HR MIN TEMP:  31; 6HR MAX TEMP:  35;                                

WAUTOMA        CLOUDY    31  28  89 NE12      29.90F WCI  22          
6HR MIN TEMP:  29; 6HR MAX TEMP:  31; 6HR PCP: TRACE;                

WISC RAPIDS    CLOUDY    32  25  75 SE10      29.89F WCI  24          
6HR MIN TEMP:  28; 6HR MAX TEMP:  32; 6HR PCP: TRACE;                

CAMP DOUGLAS   NOT AVBL                                               
$$
 
WIZ011>013-019>022-031-037>040-048>050-231900-
NORTHEAST WISCONSIN
  
CITY           SKY/WX    TMP DP  RH WIND       PRES   REMARKS
ANTIGO         CLOUDY    28  26  92 SE15      29.91F FOG     WCI  17  
6HR MIN TEMP:  23; 6HR MAX TEMP:  28;                                

SHAWANO        CLOUDY    35  28  76 E14       29.98F WCI  25          
6HR MIN TEMP:  28; 6HR MAX TEMP:  35;                                

OCONTO         CLOUDY    32  26  76 E8        30.01F WCI  25          
STURGEON BAY   LGT RAIN  33  26  75 SE17G24   29.99F WCI  22          
6HR MIN TEMP:  31; 6HR MAX TEMP:  34; 6HR PCP: TRACE;                

GREEN BAY      CLOUDY    35  28  75 N9        29.97S WCI  28          
6HR MIN TEMP:  32; 6HR MAX TEMP:  35; 6HR PCP:  0.08;                

MANITOWOC      MIX PCPN  32  28  85 SE25      29.93F WCI  19          
6HR MIN TEMP:  32; 6HR MAX TEMP:  33; 6HR PCP:  0.06;                

APPLETON       CLOUDY    30  27  86 N9        29.94S WCI  22          
CLINTONVILLE   CLOUDY    33  25  72 E13G21    29.97F WCI  24          
6HR MIN TEMP:  29; 6HR MAX TEMP:  33;                                

OSHKOSH        CLOUDY    33  29  85 NW3       29.93R FOG              
6HR MIN TEMP:  30; 6HR MAX TEMP:  33; 6HR PCP:  0.21;                

$$
 
WIZ032>034-041-042-053>061-231900-
SOUTHWEST WISCONSIN
  
CITY           SKY/WX    TMP DP  RH WIND       PRES   REMARKS
LA CROSSE      CLOUDY    35  31  85 E5        29.87F FOG     WCI  31  
6HR MIN TEMP:  31; 6HR MAX TEMP:  35; 6HR PCP:  0.02;                

SPARTA         CLOUDY    32  31  94 E6        29.87F FOG     WCI  26  
6HR MIN TEMP:  29; 6HR MAX TEMP:  32; 6HR PCP:  0.04;                

VIROQUA        CLOUDY    33  33 100 SE8       29.86F WCI  26          
6HR MIN TEMP:  29; 6HR MAX TEMP:  33;                                

BOSCOBEL       CLOUDY    36  32  85 E6        29.88F FOG     WCI  31  
6HR MIN TEMP:  32; 6HR MAX TEMP:  36; 6HR PCP:  0.04;                

PRAIRIE DU CHI CLOUDY    35  32  88 SE7       29.87S FOG     WCI  29  
6HR MIN TEMP:  32; 6HR MAX TEMP:  35; 6HR PCP:  0.14;                

PLATTEVILLE    CLOUDY    33  33 100 E6        29.86F WCI  28          
6HR MIN TEMP:  32; 6HR MAX TEMP:  33; 6HR PCP:  0.20;                

$$

WIZ056-057-062-063-064-067-068-231900-
SOUTH CENTRAL WISCONSIN
  
CITY           SKY/WX    TMP DP  RH WIND       PRES   REMARKS
REEDSBURG      CLOUDY    33  32  96 E6        29.88F FOG     WCI  27  
6HR MIN TEMP:  30; 6HR MAX TEMP:  33;                                

BARABOO/DELLS  CLOUDY    32  31  95 E10       29.87F FOG     WCI  24  
6HR MIN TEMP:  30; 6HR MAX TEMP:  33; 6HR PCP:  0.14;                

LONE ROCK      NOT AVBL                                               
MINERAL POINT  CLOUDY    34  34 100 E3        29.87F FOG              
MADISON        CLOUDY    33  30  88 NE6       29.89R FOG     WCI  28  
6HR MIN TEMP:  32; 6HR MAX TEMP:  33; 6HR PCP:  0.39;                

MIDDLETON      CLOUDY    34  32  92 E5        29.90F WCI  30          
WATERTOWN      LGT SNOW  33  33 100 SE17G32   29.83F WCI  22          
6HR MIN TEMP:  32; 6HR MAX TEMP:  33; 6HR PCP:  0.37;                

MONROE         CLOUDY    33  32  96 MISG      29.85R FOG              
6HR MIN TEMP:  32; 6HR MAX TEMP:  33; 6HR PCP:  0.44;                

JANESVILLE     CLOUDY    36  36 100 E17       29.85F FOG     WCI  25  
$$
 
WIZ051-052-058>065-066-070>072-231900-
SOUTHEAST WISCONSIN
  
CITY           SKY/WX    TMP DP  RH WIND       PRES   REMARKS
MILWAUKEE      LGT RAIN  33  30  88 E20       29.91F FOG     WCI  21  
6HR MIN TEMP:  33; 6HR MAX TEMP:  35; 6HR PCP:  0.41;                

WAUKESHA       LGT RAIN  30  28  93 E9        29.92F WCI  22          
MILWAUKEE/TIMM LGT RAIN  32  28  86 E12G21    29.92F WCI  23          
RACINE         LGT RAIN  33  31  92 E15       29.94F FOG     WCI  23  
6HR MIN TEMP:  33; 6HR MAX TEMP:  35; 6HR PCP:  0.48;                

KENOSHA        LGT RAIN  34  33  96 E17       29.92F FOG     WCI  23  
6HR MIN TEMP:  34; 6HR MAX TEMP:  36; 6HR PCP:  0.52;                

FOND DU LAC    MIX PCPN  34  29  82 W7G28     29.90R WCI  28          
6HR MIN TEMP:  30; 6HR MAX TEMP:  34; 6HR PCP:  0.20;                

SHEBOYGAN      FRZ RAIN  32  28  85 E18G31    29.90F FOG     WCI  20  
6HR MIN TEMP:  32; 6HR MAX TEMP:  34; 6HR PCP:  0.09;                

WEST BEND      LGT RAIN  32  32 100 E9        29.94F WCI  24          
JUNEAU         PTSUNNY   32  30  93 E6        29.85S WCI  26          
6HR MIN TEMP:  31; 6HR MAX TEMP:  32; 6HR PCP:  0.29;                

$$

LSZ147-162-231900-
LAKE SUPERIOR
  
STATION/POSITION TIME  TEMP    WIND        PRES    WAVE
                       AIR SEA DIR/SP/G            HT/PER
                 (UTC) (F)     (DEG/KT/KT) (MB)    (FT/S)
DEVILS ISLAND    1700   29     130/ 10/ 12 1017.5F
SAXON HARBOR     1740   35     140/  2/  8 1014.9F
$$
 
LMZ867-665-643>646-231900-
LAKE MICHIGAN
  
STATION/POSITION TIME  TEMP    WIND        PRES    WAVE
                       AIR SEA DIR/SP/G            HT/PER
                 (UTC) (F)     (DEG/KT/KT) (MB)    (FT/S)
NORTHPORT PIER   1740   33     110/  5/  8 1018.6F
KEWAUNEE LAKESHO 1730   33     130/ 15/ 18 1016.0F
SHEBOYGAN LAKESH 1700   32     100/ 12/ 13 1017.8F
PORT WASHINGTON  1730   34     100/ 11/ 14 1016.6F
MILWAUKEE LAKESH 1730   32      70/ 10/ 13   N/A
KENOSHA   LAKESH 1700   32      60/ 14/ 16 1015.9
$$

TC  - TEMPERATURE IN CELSIUS
VSB - VISIBILITY IN STATUTE MILES
WCI - WIND CHILL INDEX
HX  - HEAT INDEX